Location: *
(51.1248°S, 108.4023°W)
Time: 21:33:02
(UTC+00:00)

Meteor 1-18 Rocket - Pass Details

Date: 15 June 2021
Orbit: 837 x 908 km, 81.2° (Epoch: 04 August)

Event Time Altitude Azimuth Distance (km) Brightness Sun altitude
Rises 14:02:56 0° 345° (NNW) 3,534 7.6 -10.8°
Reaches altitude 10° 14:05:24 10° 343° (NNW) 2,596 6.8 -10.4°
Maximum altitude 14:11:20 77° 257° (WSW) 937 4.3 -9.6°
Drops below altitude 10° 14:17:17 10° 170° (S) 2,589 6.6 -8.7°
Sets 14:19:44 0° 168° (SSE) 3,524 7.3 -8.4°
